Year,Month,Day,Hour,Minute,Value (Times are PST for barometer in hPa)
2006,11,15,00,00,1008.23
2006,11,15,00,01,1008.26
2006,11,15,00,02,1008.26
2006,11,15,00,03,1008.16
2006,11,15,00,04,1008.13
2006,11,15,00,05,1008.09
2006,11,15,00,06,1008.09
2006,11,15,00,07,1008.13
2006,11,15,00,08,1008.21
2006,11,15,00,09,1008.33
2006,11,15,00,10,1008.37
2006,11,15,00,11,1008.29
2006,11,15,00,12,1008.23
2006,11,15,00,13,1008.20
2006,11,15,00,14,1008.26
2006,11,15,00,15,1008.30
2006,11,15,00,16,1008.31
2006,11,15,00,17,1008.37
2006,11,15,00,18,1008.38
2006,11,15,00,19,1008.47
2006,11,15,00,20,1008.43
2006,11,15,00,21,1008.39
2006,11,15,00,22,1008.31
2006,11,15,00,23,1008.45
2006,11,15,00,24,1008.60
2006,11,15,00,25,1008.52
2006,11,15,00,26,1008.39
2006,11,15,00,27,1008.25
2006,11,15,00,28,1008.20
2006,11,15,00,29,1008.13
2006,11,15,00,30,1008.13
2006,11,15,00,31,1008.20
2006,11,15,00,32,1008.20
2006,11,15,00,33,1008.19
2006,11,15,00,34,1008.08
2006,11,15,00,35,1008.03
2006,11,15,00,36,1008.02
2006,11,15,00,37,1007.93
2006,11,15,00,38,1007.92
2006,11,15,00,39,1007.84
2006,11,15,00,40,1007.69
2006,11,15,00,41,1007.72
2006,11,15,00,42,1007.62
2006,11,15,00,43,1007.58
2006,11,15,00,44,1007.52
2006,11,15,00,45,1007.49
2006,11,15,00,46,1007.56
2006,11,15,00,47,1007.65
2006,11,15,00,48,1007.61
2006,11,15,00,49,1007.47
2006,11,15,00,50,1007.26
2006,11,15,00,51,1007.07
2006,11,15,00,52,1007.01
2006,11,15,00,53,1006.98
2006,11,15,00,54,1007.01
2006,11,15,00,55,1007.01
2006,11,15,00,56,1006.98
2006,11,15,00,57,1006.90
2006,11,15,00,58,1006.76
2006,11,15,00,59,1006.67
2006,11,15,01,00,1006.66
2006,11,15,01,01,1006.57
2006,11,15,01,02,1006.50
2006,11,15,01,03,1006.51
2006,11,15,01,04,1006.56
2006,11,15,01,05,1006.47
2006,11,15,01,06,1006.46
2006,11,15,01,07,1006.40
2006,11,15,01,08,1006.37
2006,11,15,01,09,1006.32
2006,11,15,01,10,1006.20
2006,11,15,01,11,1006.16
2006,11,15,01,12,1006.20
2006,11,15,01,13,1006.20
2006,11,15,01,14,1006.23
2006,11,15,01,15,1006.27
2006,11,15,01,16,1006.19
2006,11,15,01,17,1006.12
2006,11,15,01,18,1005.98
2006,11,15,01,19,1005.89
2006,11,15,01,20,1005.83
2006,11,15,01,21,1005.83
2006,11,15,01,22,1005.83
2006,11,15,01,23,1005.83
2006,11,15,01,24,1005.79
2006,11,15,01,25,1005.76
2006,11,15,01,26,1005.79
2006,11,15,01,27,1005.80
2006,11,15,01,28,1005.86
2006,11,15,01,29,1005.86
2006,11,15,01,30,1005.83
2006,11,15,01,31,1005.79
2006,11,15,01,32,1005.76
2006,11,15,01,33,1005.76
2006,11,15,01,34,1005.76
2006,11,15,01,35,1005.72
2006,11,15,01,36,1005.65
2006,11,15,01,37,1005.59
2006,11,15,01,38,1005.51
2006,11,15,01,39,1005.42
2006,11,15,01,40,1005.39
2006,11,15,01,41,1005.38
2006,11,15,01,42,1005.28
2006,11,15,01,43,1005.25
2006,11,15,01,44,1005.18
2006,11,15,01,45,1005.22
2006,11,15,01,46,1005.26
2006,11,15,01,47,1005.32
2006,11,15,01,48,1005.25
2006,11,15,01,49,1005.21
2006,11,15,01,50,1005.14
2006,11,15,01,51,1004.97
2006,11,15,01,52,1004.91
2006,11,15,01,53,1004.95
2006,11,15,01,54,1004.94
2006,11,15,01,55,1004.88
2006,11,15,01,56,1004.81
2006,11,15,01,57,1004.83
2006,11,15,01,58,1004.77
2006,11,15,01,59,1004.70
2006,11,15,02,00,1004.61
2006,11,15,02,01,1004.61
2006,11,15,02,02,1004.61
2006,11,15,02,03,1004.61
2006,11,15,02,04,1004.57
2006,11,15,02,05,1004.53
2006,11,15,02,06,1004.44
2006,11,15,02,07,1004.44
2006,11,15,02,08,1004.45
2006,11,15,02,09,1004.50
2006,11,15,02,10,1004.43
2006,11,15,02,11,1004.37
2006,11,15,02,12,1004.30
2006,11,15,02,13,1004.23
2006,11,15,02,14,1004.20
2006,11,15,02,15,1004.20
2006,11,15,02,16,1004.23
2006,11,15,02,17,1004.16
2006,11,15,02,18,1004.05
2006,11,15,02,19,1003.96
2006,11,15,02,20,1003.90
2006,11,15,02,21,1003.91
2006,11,15,02,22,1003.96
2006,11,15,02,23,1003.93
2006,11,15,02,24,1003.93
2006,11,15,02,25,1003.90
2006,11,15,02,26,1003.90
2006,11,15,02,27,1003.92
2006,11,15,02,28,1003.86
2006,11,15,02,29,1003.90
2006,11,15,02,30,1003.92
2006,11,15,02,31,1003.83
2006,11,15,02,32,1003.76
2006,11,15,02,33,1003.79
2006,11,15,02,34,1003.78
2006,11,15,02,35,1003.69
2006,11,15,02,36,1003.61
2006,11,15,02,37,1003.48
2006,11,15,02,38,1003.42
2006,11,15,02,39,1003.46
2006,11,15,02,40,1003.48
2006,11,15,02,41,1003.42
2006,11,15,02,42,1003.42
2006,11,15,02,43,1003.41
2006,11,15,02,44,1003.32
2006,11,15,02,45,1003.35
2006,11,15,02,46,1003.36
2006,11,15,02,47,1003.42
2006,11,15,02,48,1003.33
2006,11,15,02,49,1003.18
2006,11,15,02,50,1003.25
2006,11,15,02,51,1003.25
2006,11,15,02,52,1003.17
2006,11,15,02,53,1003.13
2006,11,15,02,54,1003.25
2006,11,15,02,55,1003.21
2006,11,15,02,56,1003.14
2006,11,15,02,57,1003.05
2006,11,15,02,58,1003.05
2006,11,15,02,59,1003.00
2006,11,15,03,00,1002.88
2006,11,15,03,01,1002.88
2006,11,15,03,02,1002.88
2006,11,15,03,03,1002.91
2006,11,15,03,04,1002.88
2006,11,15,03,05,1002.85
2006,11,15,03,06,1002.80
2006,11,15,03,07,1002.73
2006,11,15,03,08,1002.63
2006,11,15,03,09,1002.56
2006,11,15,03,10,1002.44
2006,11,15,03,11,1002.43
2006,11,15,03,12,1002.34
2006,11,15,03,13,1002.27
2006,11,15,03,14,1002.27
2006,11,15,03,15,1002.20
2006,11,15,03,16,1002.10
2006,11,15,03,17,1002.07
2006,11,15,03,18,1002.03
2006,11,15,03,19,1002.07
2006,11,15,03,20,1002.03
2006,11,15,03,21,1002.07
2006,11,15,03,22,1002.07
2006,11,15,03,23,1002.02
2006,11,15,03,24,1001.92
2006,11,15,03,25,1001.75
2006,11,15,03,26,1001.59
2006,11,15,03,27,1001.59
2006,11,15,03,28,1001.69
2006,11,15,03,29,1001.73
2006,11,15,03,30,1001.83
2006,11,15,03,31,1001.83
2006,11,15,03,32,1001.82
2006,11,15,03,33,1001.65
2006,11,15,03,34,1001.49
2006,11,15,03,35,1001.49
2006,11,15,03,36,1001.48
2006,11,15,03,37,1001.38
2006,11,15,03,38,1001.24
2006,11,15,03,39,1001.15
2006,11,15,03,40,1001.15
2006,11,15,03,41,1001.06
2006,11,15,03,42,1001.11
2006,11,15,03,43,1001.05
2006,11,15,03,44,1001.02
2006,11,15,03,45,1000.98
2006,11,15,03,46,1000.94
2006,11,15,03,47,1000.71
2006,11,15,03,48,1000.75
2006,11,15,03,49,1000.80
2006,11,15,03,50,1000.70
2006,11,15,03,51,1000.61
2006,11,15,03,52,1000.61
2006,11,15,03,53,1000.58
2006,11,15,03,54,1000.58
2006,11,15,03,55,1000.50
2006,11,15,03,56,1000.37
2006,11,15,03,57,1000.31
2006,11,15,03,58,1000.34
2006,11,15,03,59,1000.37
2006,11,15,04,00,1000.37
2006,11,15,04,01,1000.38
2006,11,15,04,02,1000.47
2006,11,15,04,03,1000.33
2006,11,15,04,04,1000.20
2006,11,15,04,05,1000.17
2006,11,15,04,06,1000.13
2006,11,15,04,07,1000.07
2006,11,15,04,08,1000.07
2006,11,15,04,09,1000.11
2006,11,15,04,10,1000.20
2006,11,15,04,11,1000.24
2006,11,15,04,12,1000.23
2006,11,15,04,13,1000.10
2006,11,15,04,14,1000.06
2006,11,15,04,15,999.86
2006,11,15,04,16,999.80
2006,11,15,04,17,999.87
2006,11,15,04,18,999.93
2006,11,15,04,19,1000.00
2006,11,15,04,20,999.97
2006,11,15,04,21,1000.00
2006,11,15,04,22,999.97
2006,11,15,04,23,1000.00
2006,11,15,04,24,999.97
2006,11,15,04,25,1000.00
2006,11,15,04,26,1000.03
2006,11,15,04,27,1000.07
2006,11,15,04,28,1000.03
2006,11,15,04,29,1000.10
2006,11,15,04,30,1000.02
2006,11,15,04,31,999.89
2006,11,15,04,32,999.75
2006,11,15,04,33,999.63
2006,11,15,04,34,999.66
2006,11,15,04,35,999.70
2006,11,15,04,36,999.66
2006,11,15,04,37,999.70
2006,11,15,04,38,999.66
2006,11,15,04,39,999.63
2006,11,15,04,40,999.55
2006,11,15,04,41,999.48
2006,11,15,04,42,999.33
2006,11,15,04,43,999.01
2006,11,15,04,44,998.83
2006,11,15,04,45,999.00
2006,11,15,04,46,999.04
2006,11,15,04,47,998.99
2006,11,15,04,48,998.96
2006,11,15,04,49,999.05
2006,11,15,04,50,999.09
2006,11,15,04,51,999.04
2006,11,15,04,52,998.89
2006,11,15,04,53,998.95
2006,11,15,04,54,998.99
2006,11,15,04,55,999.02
2006,11,15,04,56,998.78
2006,11,15,04,57,998.78
2006,11,15,04,58,998.78
2006,11,15,04,59,998.67
2006,11,15,05,00,998.54
2006,11,15,05,01,998.59
2006,11,15,05,02,998.77
2006,11,15,05,03,998.95
2006,11,15,05,04,998.92
2006,11,15,05,05,998.84
2006,11,15,05,06,998.71
2006,11,15,05,07,998.68
2006,11,15,05,08,998.64
2006,11,15,05,09,998.53
2006,11,15,05,10,998.49
2006,11,15,05,11,998.58
2006,11,15,05,12,998.65
2006,11,15,05,13,998.68
2006,11,15,05,14,998.60
2006,11,15,05,15,998.48
2006,11,15,05,16,998.47
2006,11,15,05,17,998.38
2006,11,15,05,18,998.41
2006,11,15,05,19,998.45
2006,11,15,05,20,998.54
2006,11,15,05,21,998.58
2006,11,15,05,22,998.50
2006,11,15,05,23,998.34
2006,11,15,05,24,998.34
2006,11,15,05,25,998.34
2006,11,15,05,26,998.24
2006,11,15,05,27,998.23
2006,11,15,05,28,998.07
2006,11,15,05,29,998.00
2006,11,15,05,30,998.04
2006,11,15,05,31,998.03
2006,11,15,05,32,997.87
2006,11,15,05,33,997.83
2006,11,15,05,34,997.88
2006,11,15,05,35,997.95
2006,11,15,05,36,998.04
2006,11,15,05,37,998.13
2006,11,15,05,38,997.97
2006,11,15,05,39,997.93
2006,11,15,05,40,997.87
2006,11,15,05,41,997.82
2006,11,15,05,42,997.77
2006,11,15,05,43,997.70
2006,11,15,05,44,997.62
2006,11,15,05,45,997.53
2006,11,15,05,46,997.47
2006,11,15,05,47,997.63
2006,11,15,05,48,997.70
2006,11,15,05,49,997.63
2006,11,15,05,50,997.62
2006,11,15,05,51,997.49
2006,11,15,05,52,997.28
2006,11,15,05,53,997.16
2006,11,15,05,54,997.16
2006,11,15,05,55,997.19
2006,11,15,05,56,997.15
2006,11,15,05,57,996.98
2006,11,15,05,58,996.89
2006,11,15,05,59,996.96
2006,11,15,06,00,997.12
2006,11,15,06,01,997.11
2006,11,15,06,02,996.95
2006,11,15,06,03,996.89
2006,11,15,06,04,996.85
2006,11,15,06,05,996.82
2006,11,15,06,06,996.86
2006,11,15,06,07,997.04
2006,11,15,06,08,996.94
2006,11,15,06,09,996.82
2006,11,15,06,10,996.78
2006,11,15,06,11,996.82
2006,11,15,06,12,996.88
2006,11,15,06,13,996.61
2006,11,15,06,14,996.61
2006,11,15,06,15,996.68
2006,11,15,06,16,996.77
2006,11,15,06,17,996.57
2006,11,15,06,18,996.31
2006,11,15,06,19,996.32
2006,11,15,06,20,996.46
2006,11,15,06,21,996.61
2006,11,15,06,22,996.54
2006,11,15,06,23,996.44
2006,11,15,06,24,996.17
2006,11,15,06,25,996.21
2006,11,15,06,26,996.16
2006,11,15,06,27,995.97
2006,11,15,06,28,995.90
2006,11,15,06,29,995.84
2006,11,15,06,30,995.80
2006,11,15,06,31,995.72
2006,11,15,06,32,995.56
2006,11,15,06,33,995.64
2006,11,15,06,34,995.86
2006,11,15,06,35,995.64
2006,11,15,06,36,995.86
2006,11,15,06,37,995.71
2006,11,15,06,38,995.77
2006,11,15,06,39,995.22
2006,11,15,06,40,995.11
2006,11,15,06,41,995.47
2006,11,15,06,42,995.55
2006,11,15,06,43,995.43
2006,11,15,06,44,995.39
2006,11,15,06,45,995.26
2006,11,15,06,46,995.16
2006,11,15,06,47,995.16
2006,11,15,06,48,994.99
2006,11,15,06,49,994.99
2006,11,15,06,50,995.07
2006,11,15,06,51,995.15
2006,11,15,06,52,994.93
2006,11,15,06,53,995.12
2006,11,15,06,54,995.11
2006,11,15,06,55,994.96
2006,11,15,06,56,994.99
2006,11,15,06,57,995.01
2006,11,15,06,58,994.84
2006,11,15,06,59,994.68
2006,11,15,07,00,994.68
2006,11,15,07,01,994.59
2006,11,15,07,02,994.85
2006,11,15,07,03,994.81
2006,11,15,07,04,994.55
2006,11,15,07,05,994.59
2006,11,15,07,06,994.79
2006,11,15,07,07,994.70
2006,11,15,07,08,994.36
2006,11,15,07,09,994.47
2006,11,15,07,10,994.33
2006,11,15,07,11,993.94
2006,11,15,07,12,994.01
2006,11,15,07,13,993.97
2006,11,15,07,14,993.97
2006,11,15,07,15,994.07
2006,11,15,07,16,994.07
2006,11,15,07,17,994.10
2006,11,15,07,18,993.90
2006,11,15,07,19,993.82
2006,11,15,07,20,994.10
2006,11,15,07,21,993.93
2006,11,15,07,22,993.70
2006,11,15,07,23,993.59
2006,11,15,07,24,993.41
2006,11,15,07,25,993.51
2006,11,15,07,26,993.76
2006,11,15,07,27,993.60
2006,11,15,07,28,993.60
2006,11,15,07,29,993.51
2006,11,15,07,30,993.06
2006,11,15,07,31,992.91
2006,11,15,07,32,993.24
2006,11,15,07,33,993.40
2006,11,15,07,34,993.38
2006,11,15,07,35,992.92
2006,11,15,07,36,993.05
2006,11,15,07,37,993.36
2006,11,15,07,38,993.33
2006,11,15,07,39,992.71
2006,11,15,07,40,992.55
2006,11,15,07,41,992.70
2006,11,15,07,42,992.93
2006,11,15,07,43,993.14
2006,11,15,07,44,992.85
2006,11,15,07,45,992.72
2006,11,15,07,46,992.80
2006,11,15,07,47,993.05
2006,11,15,07,48,992.82
2006,11,15,07,49,992.52
2006,11,15,07,50,992.42
2006,11,15,07,51,992.47
2006,11,15,07,52,992.74
2006,11,15,07,53,992.55
2006,11,15,07,54,992.49
2006,11,15,07,55,992.65
2006,11,15,07,56,992.64
2006,11,15,07,57,992.51
2006,11,15,07,58,992.30
2006,11,15,07,59,992.19
2006,11,15,08,00,992.37
2006,11,15,08,01,992.11
2006,11,15,08,02,992.08
2006,11,15,08,03,992.04
2006,11,15,08,04,992.02
2006,11,15,08,05,992.18
2006,11,15,08,06,992.25
2006,11,15,08,07,992.14
2006,11,15,08,08,992.04
2006,11,15,08,09,992.11
2006,11,15,08,10,992.03
2006,11,15,08,11,991.84
2006,11,15,08,12,991.38
2006,11,15,08,13,991.60
2006,11,15,08,14,991.69
2006,11,15,08,15,991.55
2006,11,15,08,16,991.20
2006,11,15,08,17,991.09
2006,11,15,08,18,991.20
2006,11,15,08,19,991.14
2006,11,15,08,20,991.23
2006,11,15,08,21,991.20
2006,11,15,08,22,991.25
2006,11,15,08,23,991.03
2006,11,15,08,24,991.04
2006,11,15,08,25,991.22
2006,11,15,08,26,991.56
2006,11,15,08,27,991.29
2006,11,15,08,28,991.14
2006,11,15,08,29,991.21
2006,11,15,08,30,990.89
2006,11,15,08,31,990.94
2006,11,15,08,32,991.05
2006,11,15,08,33,990.83
2006,11,15,08,34,991.05
2006,11,15,08,35,990.85
2006,11,15,08,36,990.59
2006,11,15,08,37,990.64
2006,11,15,08,38,990.99
2006,11,15,08,39,990.99
2006,11,15,08,40,990.96
2006,11,15,08,41,991.01
2006,11,15,08,42,990.62
2006,11,15,08,43,990.61
2006,11,15,08,44,990.52
2006,11,15,08,45,990.59
2006,11,15,08,46,990.67
2006,11,15,08,47,990.35
2006,11,15,08,48,990.28
2006,11,15,08,49,990.24
2006,11,15,08,50,990.79
2006,11,15,08,51,990.76
2006,11,15,08,52,990.20
2006,11,15,08,53,990.05
2006,11,15,08,54,990.26
2006,11,15,08,55,990.49
2006,11,15,08,56,990.59
2006,11,15,08,57,990.53
2006,11,15,09,00,990.49
2006,11,15,09,01,990.31
2006,11,15,09,02,990.04
2006,11,15,09,03,990.07
2006,11,15,09,04,989.91
2006,11,15,09,05,990.25
2006,11,15,09,06,989.66
2006,11,15,09,07,989.96
2006,11,15,09,08,989.51
2006,11,15,09,09,989.64
2006,11,15,09,10,989.64
2006,11,15,09,11,989.37
2006,11,15,09,12,989.38
2006,11,15,09,13,989.64
2006,11,15,09,14,989.60
2006,11,15,09,15,989.60
2006,11,15,09,16,989.60
2006,11,15,09,17,989.65
2006,11,15,09,18,989.86
2006,11,15,09,19,989.40
2006,11,15,09,20,989.30
2006,11,15,09,21,989.31
2006,11,15,09,22,989.54
2006,11,15,09,23,989.71
2006,11,15,09,24,990.01
2006,11,15,09,25,989.52
2006,11,15,09,26,989.85
2006,11,15,09,27,990.00
2006,11,15,09,28,990.42
2006,11,15,09,29,990.39
2006,11,15,09,30,989.68
2006,11,15,09,31,989.03
2006,11,15,09,32,989.17
2006,11,15,09,33,989.78
2006,11,15,09,34,989.28
2006,11,15,09,35,989.42
2006,11,15,09,36,989.06
2006,11,15,09,37,989.06
2006,11,15,09,38,989.10
2006,11,15,09,39,989.13
2006,11,15,09,40,989.12
2006,11,15,09,41,988.90
2006,11,15,09,42,989.14
2006,11,15,09,43,989.21
2006,11,15,09,44,988.71
2006,11,15,09,45,988.42
2006,11,15,09,46,988.62
2006,11,15,09,47,988.58
2006,11,15,09,48,988.28
2006,11,15,09,49,988.29
2006,11,15,09,50,988.60
2006,11,15,09,51,988.82
2006,11,15,09,52,988.64
2006,11,15,09,53,988.20
2006,11,15,09,56,987.94
2006,11,15,09,57,988.33
2006,11,15,09,58,988.59
2006,11,15,09,59,988.58
2006,11,15,10,00,988.28
2006,11,15,10,01,988.33
2006,11,15,10,04,987.98
2006,11,15,10,05,988.28
2006,11,15,10,06,988.24
2006,11,15,10,07,987.42
2006,11,15,10,08,987.84
2006,11,15,10,09,987.72
2006,11,15,10,10,987.44
2006,11,15,10,11,987.44
2006,11,15,10,12,987.81
2006,11,15,10,13,987.84
2006,11,15,10,14,987.74
2006,11,15,10,15,987.86
2006,11,15,10,16,988.18
2006,11,15,10,17,988.76
2006,11,15,10,18,988.69
2006,11,15,10,19,987.36
2006,11,15,10,20,987.67
2006,11,15,10,21,987.61
2006,11,15,10,22,987.81
2006,11,15,10,23,988.35
2006,11,15,10,24,987.88
2006,11,15,10,25,987.76
2006,11,15,10,26,987.40
2006,11,15,10,27,987.95
2006,11,15,10,28,987.33
2006,11,15,10,29,987.18
2006,11,15,10,30,986.86
2006,11,15,10,31,986.90
2006,11,15,10,32,986.90
2006,11,15,10,33,987.10
2006,11,15,10,34,987.21
2006,11,15,10,35,986.90
2006,11,15,10,36,986.93
2006,11,15,10,37,987.03
2006,11,15,10,38,987.06
2006,11,15,10,39,987.67
2006,11,15,10,40,987.64
2006,11,15,10,41,987.07
2006,11,15,10,42,987.29
2006,11,15,10,43,987.13
2006,11,15,10,44,987.42
2006,11,15,10,45,987.09
2006,11,15,10,46,987.01
2006,11,15,10,47,987.13
2006,11,15,10,48,987.03
2006,11,15,10,49,987.08
2006,11,15,10,50,986.74
2006,11,15,10,51,986.89
2006,11,15,10,52,987.42
2006,11,15,10,53,987.83
2006,11,15,10,56,987.24
2006,11,15,10,57,986.83
2006,11,15,10,58,987.00
2006,11,15,10,59,987.34
2006,11,15,11,00,987.30
2006,11,15,11,01,987.31
2006,11,15,11,02,987.44
2006,11,15,11,03,987.58
2006,11,15,11,04,987.10
2006,11,15,11,05,987.06
2006,11,15,11,08,986.99
2006,11,15,11,09,987.51
2006,11,15,11,12,986.83
2006,11,15,11,13,987.26
2006,11,15,11,14,986.96
2006,11,15,11,15,986.73
2006,11,15,11,16,986.65
2006,11,15,11,17,986.52
2006,11,15,11,18,987.01
2006,11,15,11,19,986.57
2006,11,15,11,20,986.21
2006,11,15,11,21,986.08
2006,11,15,11,22,986.08
2006,11,15,11,23,986.05
2006,11,15,11,24,985.51
2006,11,15,11,25,985.51
2006,11,15,11,28,985.62
2006,11,15,11,29,985.71
2006,11,15,11,30,985.65
2006,11,15,11,31,985.85
2006,11,15,11,32,985.88
2006,11,15,11,33,985.89
2006,11,15,11,34,985.41
2006,11,15,11,35,985.71
2006,11,15,11,36,985.71
2006,11,15,11,37,985.30
2006,11,15,11,38,985.30
2006,11,15,11,39,985.64
2006,11,15,11,40,985.34
2006,11,15,11,41,985.10
2006,11,15,11,42,985.12
2006,11,15,11,43,985.60
2006,11,15,11,44,985.50
2006,11,15,11,45,985.30
2006,11,15,11,46,985.62
2006,11,15,11,47,985.82
2006,11,15,11,48,985.30
2006,11,15,11,49,985.35
2006,11,15,11,50,985.57
2006,11,15,11,51,986.22
2006,11,15,11,52,986.17
2006,11,15,11,53,985.13
2006,11,15,11,54,985.24
2006,11,15,11,55,985.54
2006,11,15,11,56,985.54
2006,11,15,11,57,985.56
2006,11,15,11,58,985.41
2006,11,15,11,59,985.29
2006,11,15,12,00,985.17
2006,11,15,12,03,984.93
2006,11,15,12,04,984.99
2006,11,15,12,05,985.28
2006,11,15,12,06,984.90
2006,11,15,12,07,985.19
2006,11,15,12,08,984.97
2006,11,15,12,09,984.99
2006,11,15,12,10,985.34
2006,11,15,12,11,985.35
2006,11,15,12,12,985.54
2006,11,15,12,13,985.54
2006,11,15,12,14,985.28
2006,11,15,12,15,985.36
2006,11,15,12,16,985.20
2006,11,15,12,17,984.69
2006,11,15,12,18,984.94
2006,11,15,12,19,985.10
2006,11,15,12,20,984.78
2006,11,15,12,21,985.24
2006,11,15,12,22,984.76
2006,11,15,12,23,985.30
2006,11,15,12,24,985.25
2006,11,15,12,25,984.93
2006,11,15,12,26,984.90
2006,11,15,12,27,984.90
2006,11,15,12,28,984.84
2006,11,15,12,29,985.00
2006,11,15,12,30,985.03
2006,11,15,12,31,985.03
2006,11,15,12,32,985.00
2006,11,15,12,33,984.46
2006,11,15,12,34,984.54
2006,11,15,12,35,984.76
2006,11,15,12,36,984.86
2006,11,15,12,37,985.07
2006,11,15,12,38,984.95
2006,11,15,12,39,984.55
2006,11,15,12,40,984.36
2006,11,15,12,41,984.16
2006,11,15,12,42,984.33
2006,11,15,12,43,984.42
2006,11,15,12,44,984.46
2006,11,15,12,45,984.08
2006,11,15,12,46,984.02
2006,11,15,12,47,984.22
2006,11,15,12,48,984.17
2006,11,15,12,49,984.46
2006,11,15,12,50,984.22
2006,11,15,12,51,984.15
2006,11,15,12,52,983.83
2006,11,15,12,53,984.26
2006,11,15,12,54,984.46
2006,11,15,12,55,984.29
2006,11,15,12,56,984.07
2006,11,15,12,57,983.96
2006,11,15,12,58,984.21
2006,11,15,12,59,984.02
2006,11,15,13,00,983.98
2006,11,15,13,01,983.90
2006,11,15,13,02,983.59
2006,11,15,13,03,983.78
2006,11,15,13,04,983.67
2006,11,15,13,05,983.60
2006,11,15,13,06,983.91
2006,11,15,13,07,983.78
2006,11,15,13,08,984.12
2006,11,15,13,09,983.52
2006,11,15,13,10,983.64
2006,11,15,13,11,983.69
2006,11,15,13,12,983.85
2006,11,15,13,13,983.92
2006,11,15,13,14,983.77
2006,11,15,13,15,983.51
2006,11,15,13,16,983.46
2006,11,15,13,17,983.75
2006,11,15,13,18,983.64
2006,11,15,13,19,983.62
2006,11,15,13,20,983.86
2006,11,15,13,21,983.51
2006,11,15,13,22,983.42
2006,11,15,13,23,983.54
2006,11,15,13,24,983.64
2006,11,15,13,25,983.35
2006,11,15,13,26,983.49
2006,11,15,13,27,983.76
2006,11,15,13,28,984.03
2006,11,15,13,29,983.59
2006,11,15,13,30,983.28
2006,11,15,13,31,983.48
2006,11,15,13,32,983.33
2006,11,15,13,33,983.04
2006,11,15,13,34,982.97
2006,11,15,13,35,982.92
2006,11,15,13,36,983.27
2006,11,15,13,37,983.29
2006,11,15,13,38,983.68
2006,11,15,13,39,983.67
2006,11,15,13,40,983.41
2006,11,15,13,41,983.47
2006,11,15,13,42,983.37
2006,11,15,13,43,983.50
2006,11,15,13,44,983.34
2006,11,15,13,45,983.20
2006,11,15,13,46,983.20
2006,11,15,13,47,983.37
2006,11,15,13,48,983.00
2006,11,15,13,49,983.11
2006,11,15,13,50,983.31
2006,11,15,13,53,982.87
2006,11,15,13,54,982.90
2006,11,15,13,55,982.93
2006,11,15,13,56,983.48
2006,11,15,13,57,983.71
2006,11,15,13,58,984.22
2006,11,15,13,59,984.22
2006,11,15,14,00,983.24
2006,11,15,14,01,982.87
2006,11,15,14,02,982.85
2006,11,15,14,03,983.17
2006,11,15,14,04,983.24
2006,11,15,14,05,982.63
2006,11,15,14,06,982.64
2006,11,15,14,09,982.65
2006,11,15,14,10,982.98
2006,11,15,14,11,983.17
2006,11,15,14,12,982.59
2006,11,15,14,13,982.64
2006,11,15,14,14,982.83
2006,11,15,14,15,982.77
2006,11,15,14,16,982.90
2006,11,15,14,17,982.53
2006,11,15,14,18,982.87
2006,11,15,14,19,982.36
2006,11,15,14,20,982.49
2006,11,15,14,21,982.54
2006,11,15,14,22,982.66
2006,11,15,14,23,982.71
2006,11,15,14,24,982.83
2006,11,15,14,25,982.46
2006,11,15,14,26,982.80
2006,11,15,14,27,982.32
2006,11,15,14,28,982.87
2006,11,15,14,29,982.70
2006,11,15,14,30,982.48
2006,11,15,14,31,982.90
2006,11,15,14,32,982.93
2006,11,15,14,33,982.90
2006,11,15,14,34,982.63
2006,11,15,14,35,982.59
2006,11,15,14,36,982.55
2006,11,15,14,37,982.44
2006,11,15,14,38,982.70
2006,11,15,14,39,982.66
2006,11,15,14,40,982.76
2006,11,15,14,41,982.22
2006,11,15,14,42,982.87
2006,11,15,14,43,982.87
2006,11,15,14,44,982.15
2006,11,15,14,45,982.37
2006,11,15,14,46,982.66
2006,11,15,14,47,982.71
2006,11,15,14,48,982.36
2006,11,15,14,49,982.45
2006,11,15,14,50,982.15
2006,11,15,14,51,982.22
2006,11,15,14,52,982.28
2006,11,15,14,53,982.05
2006,11,15,14,54,982.60
2006,11,15,14,55,981.99
2006,11,15,14,56,982.04
2006,11,15,14,57,981.92
2006,11,15,14,58,982.19
2006,11,15,14,59,982.15
2006,11,15,15,00,982.12
2006,11,15,15,01,982.26
2006,11,15,15,02,982.26
2006,11,15,15,03,982.32
2006,11,15,15,04,982.45
2006,11,15,15,07,982.29
2006,11,15,15,08,982.22
2006,11,15,15,09,982.22
2006,11,15,15,10,982.22
2006,11,15,15,11,982.15
2006,11,15,15,12,982.09
2006,11,15,15,13,982.15
2006,11,15,15,14,982.24
2006,11,15,15,15,981.89
2006,11,15,15,16,982.15
2006,11,15,15,17,982.19
2006,11,15,15,18,981.95
2006,11,15,15,19,981.85
2006,11,15,15,20,981.92
2006,11,15,15,21,981.88
2006,11,15,15,22,981.93
2006,11,15,15,23,982.05
2006,11,15,15,24,982.20
2006,11,15,15,25,981.78
2006,11,15,15,26,981.87
2006,11,15,15,27,982.36
2006,11,15,15,28,981.87
2006,11,15,15,29,981.65
2006,11,15,15,30,981.95
2006,11,15,15,31,981.71
2006,11,15,15,32,981.67
2006,11,15,15,33,981.59
2006,11,15,15,34,981.75
2006,11,15,15,35,981.91
2006,11,15,15,36,981.82
2006,11,15,15,37,981.65
2006,11,15,15,38,981.82
2006,11,15,15,39,981.58
2006,11,15,15,40,981.66
2006,11,15,15,41,981.80
2006,11,15,15,42,981.44
2006,11,15,15,43,981.68
2006,11,15,15,44,981.82
2006,11,15,15,45,981.85
2006,11,15,15,46,982.26
2006,11,15,15,47,981.76
2006,11,15,15,48,981.92
2006,11,15,15,49,981.82
2006,11,15,15,50,981.98
2006,11,15,15,51,981.88
2006,11,15,15,52,982.12
2006,11,15,15,53,981.88
2006,11,15,15,54,981.78
2006,11,15,15,55,982.12
2006,11,15,15,56,981.95
2006,11,15,15,57,981.95
2006,11,15,16,00,982.00
2006,11,15,16,01,982.11
2006,11,15,16,02,981.92
2006,11,15,16,03,981.99
2006,11,15,16,04,982.05
2006,11,15,16,05,982.22
2006,11,15,16,06,982.15
2006,11,15,16,07,982.26
2006,11,15,16,08,982.32
2006,11,15,16,09,982.36
2006,11,15,16,10,982.29
2006,11,15,16,11,982.39
2006,11,15,16,12,982.39
2006,11,15,16,13,982.49
2006,11,15,16,14,982.73
2006,11,15,16,15,982.76
2006,11,15,16,16,982.73
2006,11,15,16,17,982.80
2006,11,15,16,18,982.84
2006,11,15,16,19,982.93
2006,11,15,16,20,983.00
2006,11,15,16,21,983.10
2006,11,15,16,22,983.17
2006,11,15,16,23,983.24
2006,11,15,16,24,983.24
2006,11,15,16,25,983.24
2006,11,15,16,26,983.31
2006,11,15,16,27,983.31
2006,11,15,16,28,983.37
2006,11,15,16,29,983.37
2006,11,15,16,30,983.41
2006,11,15,16,31,983.41
2006,11,15,16,32,983.41
2006,11,15,16,33,983.44
2006,11,15,16,34,983.48
2006,11,15,16,35,983.44
2006,11,15,16,36,983.51
2006,11,15,16,37,983.61
2006,11,15,16,38,983.61
2006,11,15,16,39,983.68
2006,11,15,16,40,983.71
2006,11,15,16,41,983.75
2006,11,15,16,42,983.78
2006,11,15,16,43,983.85
2006,11,15,16,44,983.88
2006,11,15,16,45,983.95
2006,11,15,16,46,984.05
2006,11,15,16,47,984.06
2006,11,15,16,48,984.19
2006,11,15,16,49,984.25